WXM80 ListenWXM80 Stop

You find our weather info also at:

UK Metoffice

WeatherCloud

Weather Underground

Northeastern Weather Network

AWEKAS

Citizen Weather Observer Program (CWOP)

HAMweather, WeatherForYou, PWS Weather


Weather Underground History page Text

Daily Summary for November 13, 2016 Units:  English    Metric   Both
« Previous Day
Next Day »
Daily Weekly Monthly Yearly Custom
  High: Low: Average:
Temperature: 59.4 °F 39.4 °F 49.4 °F
Dew Point: 34.5 °F 28.2 °F 30.5 °F
Humidity: 69 % 33 % 49 %
Wind Speed: 9.0 mph 0.0 mph 3.7 mph
Wind Gust: 15.0 mph - -
Wind:- - WSW
Pressure: 30.13 in 29.98 in -
Precipitation: 0.00 in    
Historical Graphs
 
 
Tabular Data for November 13, 2016
Time Temperature Dew Point Pressure Wind Wind Speed Wind Gust Humidity Rainfall Rate (Hourly)
00:03 43.1 °F 29.3 °F 30.12 in WSW 3.4 mph 4.6 mph 58 % 0.00 in
00:08 43.1 °F 29.3 °F 30.12 in WSW 2.8 mph 9.2 mph 58 % 0.00 in
00:13 43.2 °F 29.4 °F 30.13 in WSW 2.8 mph 4.0 mph 58 % 0.00 in
00:18 43.2 °F 29.4 °F 30.12 in WSW 2.1 mph 4.0 mph 58 % 0.00 in
00:23 43.2 °F 29.4 °F 30.12 in SW 1.8 mph 3.5 mph 58 % 0.00 in
00:28 43.1 °F 29.7 °F 30.12 in SSW 4.6 mph 7.0 mph 59 % 0.00 in
00:33 43.0 °F 29.6 °F 30.12 in SW 2.6 mph 5.0 mph 59 % 0.00 in
00:38 42.9 °F 29.5 °F 30.12 in SW 3.1 mph 5.8 mph 59 % 0.00 in
00:43 42.9 °F 29.5 °F 30.12 in WSW 5.6 mph 11.5 mph 59 % 0.00 in
00:48 43.0 °F 29.6 °F 30.12 in WSW 6.2 mph 11.5 mph 59 % 0.00 in
00:54 43.2 °F 29.8 °F 30.11 in WSW 7.2 mph 10.4 mph 59 % 0.00 in
00:59 43.3 °F 29.9 °F 30.11 in SW 4.9 mph 14.0 mph 59 % 0.00 in
01:04 43.4 °F 30.0 °F 30.11 in WSW 3.2 mph 10.4 mph 59 % 0.00 in
01:09 43.6 °F 30.2 °F 30.11 in SW 5.0 mph 8.1 mph 59 % 0.00 in
01:14 43.6 °F 29.8 °F 30.11 in SW 6.3 mph 7.0 mph 58 % 0.00 in
01:19 43.7 °F 29.9 °F 30.10 in SW 4.3 mph 7.0 mph 58 % 0.00 in
01:24 43.7 °F 29.9 °F 30.11 in SW 3.4 mph 6.9 mph 58 % 0.00 in
01:29 43.6 °F 29.8 °F 30.11 in WSW 5.3 mph 8.1 mph 58 % 0.00 in
01:34 43.6 °F 29.8 °F 30.11 in WSW 1.9 mph 6.9 mph 58 % 0.00 in
01:39 43.6 °F 29.8 °F 30.11 in WSW 5.7 mph 8.1 mph 58 % 0.00 in
01:44 43.5 °F 29.7 °F 30.11 in West 4.1 mph 8.1 mph 58 % 0.00 in
01:50 43.4 °F 30.0 °F 30.11 in WSW 3.3 mph 6.9 mph 59 % 0.00 in
01:55 43.4 °F 30.0 °F 30.10 in WSW 5.0 mph 9.0 mph 59 % 0.00 in
02:00 43.4 °F 30.0 °F 30.11 in WSW 6.7 mph 9.0 mph 59 % 0.00 in
02:05 43.4 °F 30.0 °F 30.10 in WSW 5.5 mph 9.2 mph 59 % 0.00 in
02:10 43.5 °F 30.1 °F 30.09 in SW 6.5 mph 11.5 mph 59 % 0.00 in
02:15 43.6 °F 30.6 °F 30.10 in SW 5.8 mph 10.4 mph 60 % 0.00 in
02:20 43.6 °F 30.6 °F 30.10 in SW 7.0 mph 12.0 mph 60 % 0.00 in
02:25 43.7 °F 30.3 °F 30.10 in SW 5.0 mph 9.0 mph 59 % 0.00 in
02:30 43.7 °F 30.3 °F 30.10 in WSW 5.0 mph 12.0 mph 59 % 0.00 in
02:35 43.7 °F 30.7 °F 30.10 in WSW 3.0 mph 10.0 mph 60 % 0.00 in
02:40 43.7 °F 30.3 °F 30.09 in WSW 3.0 mph 9.0 mph 59 % 0.00 in
02:45 43.6 °F 29.8 °F 30.10 in WSW 3.0 mph 12.0 mph 58 % 0.00 in
02:50 43.5 °F 29.7 °F 30.10 in SW 6.3 mph 8.1 mph 58 % 0.00 in
02:55 43.3 °F 29.5 °F 30.10 in WSW 4.0 mph 7.0 mph 58 % 0.00 in
03:00 43.2 °F 29.8 °F 30.10 in West 3.7 mph 5.8 mph 59 % 0.00 in
03:05 43.1 °F 29.7 °F 30.09 in West 4.8 mph 8.1 mph 59 % 0.00 in
03:11 43.1 °F 29.7 °F 30.09 in WSW 4.6 mph 9.2 mph 59 % 0.00 in
03:16 43.0 °F 29.6 °F 30.09 in WSW 4.7 mph 11.5 mph 59 % 0.00 in
03:21 42.9 °F 29.5 °F 30.09 in WSW 3.4 mph 6.9 mph 59 % 0.00 in
03:26 42.9 °F 29.5 °F 30.09 in West 3.1 mph 6.9 mph 59 % 0.00 in
03:31 42.9 °F 29.5 °F 30.09 in SW 3.8 mph 8.1 mph 59 % 0.00 in
03:37 42.8 °F 29.5 °F 30.09 in WSW 4.0 mph 7.0 mph 59 % 0.00 in
03:41 42.7 °F 29.4 °F 30.09 in West 2.9 mph 5.8 mph 59 % 0.00 in
03:47 42.7 °F 29.4 °F 30.09 in West 5.8 mph 10.4 mph 59 % 0.00 in
03:52 42.6 °F 29.3 °F 30.09 in WSW 5.1 mph 8.1 mph 59 % 0.00 in
03:57 42.5 °F 29.6 °F 30.09 in West 3.0 mph 5.8 mph 60 % 0.00 in
04:02 42.4 °F 29.5 °F 30.10 in WSW 4.1 mph 5.8 mph 60 % 0.00 in
04:07 42.4 °F 29.5 °F 30.09 in WSW 2.5 mph 4.0 mph 60 % 0.00 in
04:12 42.3 °F 29.4 °F 30.09 in WSW 3.0 mph 5.8 mph 60 % 0.00 in
04:17 42.3 °F 29.4 °F 30.10 in WSW 5.3 mph 6.9 mph 60 % 0.00 in
04:22 42.2 °F 29.3 °F 30.09 in West 4.6 mph 6.9 mph 60 % 0.00 in
04:27 42.2 °F 29.3 °F 30.10 in WSW 6.1 mph 10.4 mph 60 % 0.00 in
04:32 42.1 °F 29.2 °F 30.10 in SW 5.5 mph 11.5 mph 60 % 0.00 in
04:38 42.0 °F 29.5 °F 30.09 in WSW 5.9 mph 10.0 mph 61 % 0.00 in
04:43 41.9 °F 29.4 °F 30.09 in West 2.9 mph 5.0 mph 61 % 0.00 in
04:53 41.8 °F 29.3 °F 30.10 in SW 3.9 mph 6.9 mph 61 % 0.00 in
04:58 41.7 °F 29.6 °F 30.09 in West 3.6 mph 4.6 mph 62 % 0.00 in
05:03 41.6 °F 29.5 °F 30.09 in WSW 2.9 mph 8.1 mph 62 % 0.00 in
05:08 41.5 °F 29.4 °F 30.09 in WSW 2.8 mph 6.9 mph 62 % 0.00 in
05:13 41.3 °F 29.3 °F 30.09 in SW 3.9 mph 4.6 mph 62 % 0.00 in
05:18 41.2 °F 29.5 °F 30.09 in WSW 3.3 mph 9.2 mph 63 % 0.00 in
05:23 41.1 °F 29.5 °F 30.09 in WSW 5.1 mph 8.1 mph 63 % 0.00 in
05:29 41.0 °F 29.4 °F 30.09 in WSW 4.1 mph 6.9 mph 63 % 0.00 in
05:34 40.9 °F 29.3 °F 30.10 in WSW 4.7 mph 8.1 mph 63 % 0.00 in
05:39 40.8 °F 29.6 °F 30.10 in SW 3.6 mph 6.9 mph 64 % 0.00 in
05:44 40.7 °F 29.5 °F 30.09 in WSW 2.3 mph 4.0 mph 64 % 0.00 in
05:49 40.7 °F 29.8 °F 30.10 in SW 1.8 mph 3.5 mph 65 % 0.00 in
05:54 40.6 °F 29.7 °F 30.10 in SW 2.9 mph 3.5 mph 65 % 0.00 in
05:59 40.5 °F 29.7 °F 30.10 in WSW 2.3 mph 3.5 mph 65 % 0.00 in
06:04 40.4 °F 29.9 °F 30.09 in SW 2.8 mph 3.5 mph 66 % 0.00 in
06:09 40.3 °F 29.8 °F 30.10 in SW 2.7 mph 4.6 mph 66 % 0.00 in
06:15 40.2 °F 29.7 °F 30.10 in WSW 2.4 mph 4.0 mph 66 % 0.00 in
06:20 40.1 °F 29.6 °F 30.10 in SW 3.7 mph 4.6 mph 66 % 0.00 in
06:25 40.1 °F 29.6 °F 30.10 in WSW 1.4 mph 2.3 mph 66 % 0.00 in
06:30 40.0 °F 29.6 °F 30.10 in SW 2.4 mph 4.0 mph 66 % 0.00 in
06:35 39.9 °F 29.8 °F 30.10 in SW 2.5 mph 3.5 mph 67 % 0.00 in
06:40 39.7 °F 29.6 °F 30.10 in SW 3.0 mph 4.6 mph 67 % 0.00 in
06:45 39.6 °F 29.9 °F 30.10 in SW 3.0 mph 7.0 mph 68 % 0.00 in
06:50 39.5 °F 29.8 °F 30.10 in SW 3.0 mph 5.0 mph 68 % 0.00 in
06:55 39.4 °F 29.7 °F 30.10 in SW 3.0 mph 7.0 mph 68 % 0.00 in
07:00 39.4 °F 30.1 °F 30.10 in SW 3.5 mph 9.2 mph 69 % 0.00 in
07:05 39.4 °F 30.1 °F 30.10 in SW 3.0 mph 9.0 mph 69 % 0.00 in
07:10 39.5 °F 30.2 °F 30.10 in SW 3.0 mph 8.0 mph 69 % 0.00 in
07:15 39.5 °F 30.2 °F 30.10 in WSW 5.0 mph 8.0 mph 69 % 0.00 in
07:20 39.7 °F 30.4 °F 30.10 in West 5.6 mph 6.9 mph 69 % 0.00 in
07:25 39.9 °F 30.5 °F 30.10 in WSW 3.0 mph 7.0 mph 69 % 0.00 in
07:30 40.1 °F 30.7 °F 30.10 in WSW 6.0 mph 10.0 mph 69 % 0.00 in
07:35 40.5 °F 30.8 °F 30.10 in WSW 5.6 mph 9.2 mph 68 % 0.00 in
07:40 40.8 °F 31.1 °F 30.10 in WSW 5.5 mph 9.2 mph 68 % 0.00 in
07:45 41.1 °F 31.0 °F 30.10 in SW 4.0 mph 7.0 mph 67 % 0.00 in
07:50 41.3 °F 31.2 °F 30.10 in WSW 3.7 mph 6.9 mph 67 % 0.00 in
07:55 41.6 °F 31.1 °F 30.10 in WSW 5.4 mph 8.0 mph 66 % 0.00 in
08:01 41.9 °F 31.4 °F 30.10 in WSW 5.3 mph 8.1 mph 66 % 0.00 in
08:06 42.2 °F 31.3 °F 30.10 in WSW 3.5 mph 5.8 mph 65 % 0.00 in
08:11 42.4 °F 31.5 °F 30.10 in SW 3.7 mph 5.8 mph 65 % 0.00 in
08:16 42.5 °F 31.2 °F 30.10 in WSW 2.9 mph 3.5 mph 64 % 0.00 in
08:21 42.7 °F 31.4 °F 30.10 in WSW 3.0 mph 3.5 mph 64 % 0.00 in
08:26 42.9 °F 31.6 °F 30.10 in WSW 2.2 mph 8.1 mph 64 % 0.00 in
08:31 43.1 °F 31.7 °F 30.11 in SW 1.2 mph 4.0 mph 64 % 0.00 in
08:36 43.5 °F 32.1 °F 30.11 in WSW 2.9 mph 6.9 mph 64 % 0.00 in
08:41 44.0 °F 32.2 °F 30.11 in SW 2.5 mph 6.9 mph 63 % 0.00 in
08:46 44.6 °F 32.4 °F 30.11 in SW 5.1 mph 10.0 mph 62 % 0.00 in
08:52 45.3 °F 32.6 °F 30.10 in SW 4.0 mph 9.2 mph 61 % 0.00 in
08:57 45.9 °F 32.8 °F 30.10 in SSW 3.8 mph 5.8 mph 60 % 0.00 in
09:02 46.4 °F 32.8 °F 30.10 in West 4.8 mph 7.0 mph 59 % 0.00 in
09:07 46.8 °F 32.8 °F 30.10 in WSW 5.4 mph 8.0 mph 58 % 0.00 in
09:12 47.1 °F 32.6 °F 30.10 in WSW 4.7 mph 5.0 mph 57 % 0.00 in
09:17 47.4 °F 32.9 °F 30.10 in SW 4.0 mph 6.9 mph 57 % 0.00 in
09:22 47.6 °F 32.7 °F 30.10 in WSW 2.9 mph 9.2 mph 56 % 0.00 in
09:27 47.9 °F 33.4 °F 30.10 in WSW 2.3 mph 3.5 mph 57 % 0.00 in
09:32 48.2 °F 33.2 °F 30.10 in WSW 2.8 mph 6.0 mph 56 % 0.00 in
09:37 48.5 °F 33.5 °F 30.10 in WSW 3.4 mph 6.9 mph 56 % 0.00 in
09:43 48.8 °F 33.3 °F 30.10 in SW 5.9 mph 12.0 mph 55 % 0.00 in
09:48 49.1 °F 34.1 °F 30.10 in WSW 4.0 mph 6.0 mph 56 % 0.00 in
09:53 49.6 °F 34.1 °F 30.10 in West 2.5 mph 6.9 mph 55 % 0.00 in
09:58 50.1 °F 34.5 °F 30.10 in WNW 6.4 mph 9.2 mph 55 % 0.00 in
10:03 50.6 °F 34.1 °F 30.09 in West 6.4 mph 8.1 mph 53 % 0.00 in
10:08 51.0 °F 34.0 °F 30.09 in SW 4.9 mph 9.2 mph 52 % 0.00 in
10:13 51.4 °F 33.4 °F 30.09 in WSW 6.8 mph 12.7 mph 50 % 0.00 in
10:18 51.6 °F 33.6 °F 30.08 in SW 7.0 mph 11.5 mph 50 % 0.00 in
10:23 51.9 °F 33.8 °F 30.09 in SW 6.5 mph 11.5 mph 50 % 0.00 in
10:28 52.1 °F 34.0 °F 30.08 in WSW 8.6 mph 13.8 mph 50 % 0.00 in
10:34 52.3 °F 33.7 °F 30.08 in WSW 5.4 mph 11.5 mph 49 % 0.00 in
10:49 52.6 °F 33.5 °F 30.07 in SW 7.6 mph 9.2 mph 48 % 0.00 in
10:54 52.5 °F 33.4 °F 30.07 in West 4.2 mph 8.1 mph 48 % 0.00 in
10:59 52.6 °F 33.5 °F 30.07 in West 8.1 mph 10.4 mph 48 % 0.00 in
11:04 52.6 °F 34.0 °F 30.07 in WNW 6.1 mph 6.9 mph 49 % 0.00 in
11:09 52.6 °F 33.5 °F 30.06 in WNW 4.7 mph 9.2 mph 48 % 0.00 in
11:14 52.6 °F 33.5 °F 30.06 in SSW 5.1 mph 9.2 mph 48 % 0.00 in
11:19 52.5 °F 33.9 °F 30.06 in WNW 4.7 mph 11.5 mph 49 % 0.00 in
11:24 52.6 °F 33.5 °F 30.06 in SW 5.6 mph 10.4 mph 48 % 0.00 in
11:29 52.6 °F 33.5 °F 30.06 in SW 5.6 mph 12.0 mph 48 % 0.00 in
11:34 52.7 °F 33.0 °F 30.05 in WSW 2.7 mph 6.9 mph 47 % 0.00 in
11:40 52.9 °F 33.2 °F 30.05 in WSW 3.4 mph 7.0 mph 47 % 0.00 in
11:45 53.0 °F 33.3 °F 30.05 in SSW 3.9 mph 6.9 mph 47 % 0.00 in
11:50 53.1 °F 32.3 °F 30.05 in WSW 5.2 mph 8.1 mph 45 % 0.00 in
11:55 53.4 °F 33.1 °F 30.04 in WSW 3.9 mph 7.0 mph 46 % 0.00 in
12:00 53.7 °F 31.7 °F 30.04 in West 2.7 mph 8.1 mph 43 % 0.00 in
12:10 54.3 °F 31.6 °F 30.04 in WSW 7.0 mph 12.0 mph 42 % 0.00 in
12:15 54.5 °F 31.8 °F 30.03 in SW 5.0 mph 12.0 mph 42 % 0.00 in
12:20 54.8 °F 32.1 °F 30.03 in SW 7.0 mph 10.0 mph 42 % 0.00 in
12:25 55.0 °F 32.9 °F 30.03 in WSW 6.0 mph 10.0 mph 43 % 0.00 in
12:30 55.3 °F 32.6 °F 30.03 in WSW 5.0 mph 10.0 mph 42 % 0.00 in
12:35 55.5 °F 32.7 °F 30.03 in WSW 7.0 mph 14.0 mph 42 % 0.00 in
12:40 55.6 °F 32.3 °F 30.03 in WSW 7.0 mph 13.0 mph 41 % 0.00 in
12:45 55.8 °F 32.4 °F 30.03 in WSW 7.0 mph 12.0 mph 41 % 0.00 in
12:50 55.9 °F 32.5 °F 30.02 in WSW 3.0 mph 12.0 mph 41 % 0.00 in
12:55 56.1 °F 31.5 °F 30.02 in WSW 9.0 mph 15.0 mph 39 % 0.00 in
13:00 56.3 °F 32.3 °F 30.01 in WSW 8.9 mph 11.5 mph 40 % 0.00 in
13:05 56.6 °F 32.5 °F 30.01 in WSW 7.2 mph 11.5 mph 40 % 0.00 in
13:10 57.0 °F 32.3 °F 30.01 in West 5.5 mph 10.4 mph 39 % 0.00 in
13:15 57.3 °F 31.9 °F 30.00 in SW 5.0 mph 6.9 mph 38 % 0.00 in
13:21 57.6 °F 31.5 °F 30.01 in WSW 7.1 mph 10.4 mph 37 % 0.00 in
13:31 58.3 °F 32.1 °F 30.01 in SW 5.1 mph 8.0 mph 37 % 0.00 in
13:36 58.6 °F 31.7 °F 30.00 in West 3.1 mph 5.8 mph 36 % 0.00 in
13:41 58.9 °F 32.0 °F 30.00 in West 5.3 mph 7.0 mph 36 % 0.00 in
13:46 59.0 °F 32.1 °F 30.00 in SW 5.3 mph 10.4 mph 36 % 0.00 in
13:51 59.2 °F 31.5 °F 29.99 in WSW 4.4 mph 11.5 mph 35 % 0.00 in
13:56 59.3 °F 31.6 °F 29.99 in WSW 4.8 mph 11.5 mph 35 % 0.00 in
14:01 59.3 °F 30.9 °F 29.99 in SW 5.0 mph 11.5 mph 34 % 0.00 in
14:06 59.4 °F 31.7 °F 29.99 in WNW 2.4 mph 6.0 mph 35 % 0.00 in
14:11 59.4 °F 31.7 °F 29.99 in WSW 3.1 mph 4.6 mph 35 % 0.00 in
14:16 59.4 °F 31.7 °F 29.99 in West 2.7 mph 6.0 mph 35 % 0.00 in
14:22 59.4 °F 31.7 °F 29.99 in SW 1.9 mph 3.5 mph 35 % 0.00 in
14:27 59.3 °F 31.6 °F 29.99 in WSW 4.8 mph 10.0 mph 35 % 0.00 in
14:32 59.3 °F 30.9 °F 29.99 in SW 7.5 mph 11.5 mph 34 % 0.00 in
14:37 59.2 °F 30.8 °F 29.99 in WSW 6.4 mph 10.4 mph 34 % 0.00 in
14:42 59.2 °F 30.8 °F 29.99 in WSW 4.0 mph 10.4 mph 34 % 0.00 in
14:47 59.2 °F 31.5 °F 29.99 in WSW 4.2 mph 6.9 mph 35 % 0.00 in
14:52 59.3 °F 30.9 °F 29.99 in WSW 1.8 mph 9.2 mph 34 % 0.00 in
14:57 59.3 °F 31.6 °F 29.99 in SW 5.2 mph 6.9 mph 35 % 0.00 in
15:02 59.4 °F 31.7 °F 29.99 in SW 4.8 mph 6.9 mph 35 % 0.00 in
15:07 59.4 °F 31.0 °F 29.99 in SW 5.3 mph 8.1 mph 34 % 0.00 in
15:13 59.4 °F 31.7 °F 29.99 in SW 1.6 mph 4.0 mph 35 % 0.00 in
15:18 59.3 °F 30.9 °F 29.99 in SW 3.6 mph 8.1 mph 34 % 0.00 in
15:23 59.3 °F 30.9 °F 29.99 in SW 1.6 mph 3.5 mph 34 % 0.00 in
15:28 59.2 °F 30.8 °F 29.99 in WSW 3.2 mph 6.0 mph 34 % 0.00 in
15:33 59.2 °F 30.1 °F 29.99 in WNW 2.9 mph 5.0 mph 33 % 0.00 in
15:38 59.1 °F 30.7 °F 29.99 in SW 3.5 mph 5.0 mph 34 % 0.00 in
15:43 59.1 °F 30.7 °F 29.99 in SW 1.8 mph 3.5 mph 34 % 0.00 in
15:48 59.0 °F 29.9 °F 29.99 in SW 1.5 mph 3.5 mph 33 % 0.00 in
15:53 59.0 °F 29.9 °F 29.99 in SSW 0.8 mph 2.3 mph 33 % 0.00 in
15:58 58.9 °F 30.6 °F 29.99 in WSW 0.7 mph 2.3 mph 34 % 0.00 in
16:04 58.8 °F 30.5 °F 29.99 in West 1.2 mph 3.5 mph 34 % 0.00 in
16:09 58.7 °F 30.4 °F 29.99 in WSW 0.7 mph 1.2 mph 34 % 0.00 in
16:14 58.5 °F 30.2 °F 29.98 in SW 2.3 mph 5.0 mph 34 % 0.00 in
16:19 58.3 °F 29.3 °F 29.98 in WSW 1.1 mph 3.5 mph 33 % 0.00 in
16:24 58.1 °F 29.8 °F 29.98 in South 1.2 mph 2.3 mph 34 % 0.00 in
16:29 57.9 °F 30.4 °F 29.99 in South 0.4 mph 1.2 mph 35 % 0.00 in
16:34 57.7 °F 30.2 °F 29.99 in Calm     35 % 0.00 in
16:39 57.4 °F 29.9 °F 29.99 in Calm   1.2 mph 35 % 0.00 in
16:44 57.1 °F 30.4 °F 29.99 in South 0.2 mph 1.2 mph 36 % 0.00 in
16:50 56.8 °F 30.8 °F 29.99 in WSW 1.6 mph 5.0 mph 37 % 0.00 in
16:55 56.4 °F 30.4 °F 29.99 in WSW 1.1 mph 3.5 mph 37 % 0.00 in
17:00 56.1 °F 30.2 °F 29.99 in SW 2.4 mph 4.6 mph 37 % 0.00 in
17:05 55.8 °F 30.5 °F 29.99 in WNW 2.8 mph 6.0 mph 38 % 0.00 in
17:10 55.6 °F 29.7 °F 29.99 in SW 4.0 mph 8.1 mph 37 % 0.00 in
17:15 55.3 °F 30.1 °F 29.99 in WSW 3.0 mph 3.5 mph 38 % 0.00 in
17:20 55.2 °F 29.4 °F 29.99 in SW 2.3 mph 4.6 mph 37 % 0.00 in
17:25 55.1 °F 29.3 °F 29.99 in SW 3.0 mph 8.0 mph 37 % 0.00 in
17:30 55.0 °F 29.2 °F 29.99 in SW 5.0 mph 9.0 mph 37 % 0.00 in
17:35 55.0 °F 28.5 °F 29.99 in WSW 5.0 mph 9.0 mph 36 % 0.00 in
17:40 54.9 °F 29.1 °F 29.99 in WSW 5.0 mph 7.0 mph 37 % 0.00 in
17:45 54.9 °F 29.1 °F 30.00 in SW 2.0 mph 9.0 mph 37 % 0.00 in
17:50 55.0 °F 29.1 °F 30.00 in SW 2.0 mph 6.0 mph 37 % 0.00 in
17:55 54.9 °F 29.1 °F 30.00 in SW 3.0 mph 7.0 mph 37 % 0.00 in
18:00 54.8 °F 29.0 °F 30.00 in SSW 1.1 mph 3.5 mph 37 % 0.00 in
18:05 54.8 °F 29.0 °F 30.00 in WSW 3.2 mph 5.8 mph 37 % 0.00 in
18:10 54.8 °F 29.0 °F 30.00 in SW 4.9 mph 9.2 mph 37 % 0.00 in
18:15 54.6 °F 28.8 °F 30.00 in WSW 2.9 mph 4.6 mph 37 % 0.00 in
18:21 54.6 °F 28.8 °F 30.00 in SW 2.5 mph 6.0 mph 37 % 0.00 in
18:26 54.5 °F 29.4 °F 30.00 in SSW 3.4 mph 5.8 mph 38 % 0.00 in
18:31 54.4 °F 28.6 °F 30.00 in WSW 1.5 mph 3.5 mph 37 % 0.00 in
18:36 54.3 °F 29.2 °F 30.00 in SSW 3.1 mph 4.6 mph 38 % 0.00 in
18:41 54.1 °F 28.4 °F 30.00 in SSW 3.3 mph 6.0 mph 37 % 0.00 in
18:46 54.0 °F 28.9 °F 30.00 in SW 3.1 mph 5.8 mph 38 % 0.00 in
18:51 53.9 °F 28.2 °F 30.00 in WSW 5.0 mph 8.1 mph 37 % 0.00 in
18:56 53.8 °F 28.8 °F 30.00 in SSW 2.9 mph 3.5 mph 38 % 0.00 in
19:01 53.7 °F 28.7 °F 30.01 in WSW 5.3 mph 8.1 mph 38 % 0.00 in
19:06 53.7 °F 28.7 °F 30.01 in SSW 3.4 mph 5.8 mph 38 % 0.00 in
19:12 53.6 °F 29.2 °F 30.01 in SSW 2.7 mph 4.0 mph 39 % 0.00 in
19:22 53.5 °F 29.1 °F 30.01 in SW 2.0 mph 3.5 mph 39 % 0.00 in
19:27 53.5 °F 29.1 °F 30.01 in SW 4.1 mph 8.1 mph 39 % 0.00 in
19:32 53.5 °F 28.5 °F 30.00 in WSW 1.1 mph 5.0 mph 38 % 0.00 in
19:37 53.4 °F 29.0 °F 30.01 in SW 2.2 mph 7.0 mph 39 % 0.00 in
19:42 53.4 °F 29.0 °F 30.01 in SW 2.1 mph 3.5 mph 39 % 0.00 in
19:47 53.3 °F 29.6 °F 30.01 in West 2.8 mph 5.8 mph 40 % 0.00 in
19:52 53.3 °F 29.6 °F 30.01 in West 3.7 mph 5.8 mph 40 % 0.00 in
19:57 53.2 °F 30.1 °F 30.01 in SW 1.9 mph 3.5 mph 41 % 0.00 in
20:03 53.1 °F 29.4 °F 30.01 in SW 0.8 mph 3.5 mph 40 % 0.00 in
20:08 53.0 °F 29.3 °F 30.01 in WSW 1.2 mph 3.5 mph 40 % 0.00 in
20:13 52.9 °F 29.8 °F 30.01 in West 2.7 mph 7.0 mph 41 % 0.00 in
20:18 52.8 °F 30.3 °F 30.01 in SW 2.7 mph 4.6 mph 42 % 0.00 in
20:23 52.6 °F 29.5 °F 30.01 in WSW 0.2 mph 2.0 mph 41 % 0.00 in
20:28 52.6 °F 30.1 °F 30.01 in SW 2.7 mph 3.5 mph 42 % 0.00 in
20:33 52.4 °F 30.0 °F 30.00 in WSW 3.2 mph 5.8 mph 42 % 0.00 in
20:38 52.3 °F 29.9 °F 30.00 in SW 2.3 mph 4.6 mph 42 % 0.00 in
20:43 52.2 °F 29.8 °F 30.00 in SW 2.1 mph 3.5 mph 42 % 0.00 in
20:48 52.0 °F 29.6 °F 30.01 in WSW 2.1 mph 3.5 mph 42 % 0.00 in
20:54 51.9 °F 29.5 °F 30.00 in SW 3.4 mph 7.0 mph 42 % 0.00 in
20:59 51.8 °F 30.0 °F 30.00 in SW 2.3 mph 3.5 mph 43 % 0.00 in
21:04 51.7 °F 30.5 °F 30.00 in WSW 2.0 mph 5.0 mph 44 % 0.00 in
21:09 51.5 °F 30.3 °F 30.00 in West 2.9 mph 5.0 mph 44 % 0.00 in
21:14 51.4 °F 30.2 °F 30.00 in WSW 3.1 mph 5.0 mph 44 % 0.00 in
21:19 51.3 °F 30.1 °F 30.00 in West 3.6 mph 5.8 mph 44 % 0.00 in
21:24 51.2 °F 30.0 °F 30.00 in SSW 1.8 mph 3.5 mph 44 % 0.00 in
21:29 51.2 °F 30.0 °F 30.00 in SW 1.9 mph 4.6 mph 44 % 0.00 in
21:34 51.2 °F 30.6 °F 30.00 in WSW 2.5 mph 3.5 mph 45 % 0.00 in
21:40 51.1 °F 31.0 °F 30.00 in SW 2.1 mph 4.6 mph 46 % 0.00 in
21:45 51.0 °F 30.9 °F 30.00 in SW 2.1 mph 3.5 mph 46 % 0.00 in
21:50 50.9 °F 30.8 °F 29.99 in WSW 2.8 mph 5.8 mph 46 % 0.00 in
21:55 50.7 °F 30.7 °F 30.00 in WSW 3.1 mph 4.6 mph 46 % 0.00 in
22:00 50.6 °F 30.6 °F 29.99 in WSW 2.3 mph 8.1 mph 46 % 0.00 in
22:05 50.5 °F 30.5 °F 29.99 in SW 3.8 mph 4.6 mph 46 % 0.00 in
22:10 50.5 °F 31.0 °F 29.99 in WSW 2.7 mph 3.5 mph 47 % 0.00 in
22:15 50.4 °F 30.4 °F 29.99 in WSW 1.6 mph 4.0 mph 46 % 0.00 in
22:20 50.3 °F 29.7 °F 29.99 in WSW 3.0 mph 6.0 mph 45 % 0.00 in
22:25 50.2 °F 29.7 °F 29.99 in SW 4.0 mph 6.0 mph 45 % 0.00 in
22:35 50.1 °F 29.6 °F 29.99 in SW 2.8 mph 3.5 mph 45 % 0.00 in
22:40 50.1 °F 30.1 °F 30.00 in SSW 1.7 mph 3.5 mph 46 % 0.00 in
22:45 50.1 °F 29.6 °F 30.00 in SW 2.7 mph 7.0 mph 45 % 0.00 in
22:51 50.0 °F 29.5 °F 30.00 in SSW 1.4 mph 4.6 mph 45 % 0.00 in
22:56 49.9 °F 29.4 °F 30.00 in SW 0.6 mph 3.5 mph 45 % 0.00 in
23:01 49.8 °F 29.3 °F 30.00 in SW 2.2 mph 3.5 mph 45 % 0.00 in
23:06 49.7 °F 29.7 °F 30.00 in SW 1.8 mph 2.3 mph 46 % 0.00 in
23:11 49.4 °F 29.5 °F 30.00 in Calm   1.2 mph 46 % 0.00 in
23:16 49.2 °F 29.3 °F 30.00 in South 1.0 mph 3.5 mph 46 % 0.00 in
23:21 48.9 °F 29.0 °F 30.00 in WSW 0.7 mph 3.5 mph 46 % 0.00 in
23:26 48.6 °F 28.7 °F 30.00 in WSW 1.3 mph 3.5 mph 46 % 0.00 in
23:31 48.3 °F 28.5 °F 30.00 in SW 3.1 mph 4.0 mph 46 % 0.00 in
23:37 48.1 °F 28.3 °F 30.00 in SSW 3.8 mph 4.6 mph 46 % 0.00 in
23:42 48.0 °F 28.7 °F 30.00 in WSW 1.0 mph 1.2 mph 47 % 0.00 in
23:47 47.9 °F 28.6 °F 30.00 in WSW 3.2 mph 4.6 mph 47 % 0.00 in
23:52 47.9 °F 28.6 °F 30.00 in WSW 2.6 mph 3.5 mph 47 % 0.00 in
23:57 47.9 °F 28.6 °F 30.00 in SSW 2.0 mph 3.0 mph 47 % 0.00 in
Crab Meadow Weather
Compliments of Weather Underground - 2.75 mb

Script developed by  Jim McMurry - jmcmurry@mwt.net Adapted for the template by  Wim van der Kuil - Leuven-Template.eu

Weather Terms: Winter Storm Warning - Hazardous winter weather conditions that pose a threat to life and/or property are occurring, imminent or likely. The generic term, winter storm warning, is used for a combination of two or more of the following winter weather events; heavy snow, freezing rain, sleet and strong winds.